This is the latest recevied weather packets stored in our database for station/object NI4CE-10. If no packets are shown the sender has not sent any weather packets the latest 1 day(s).
| Time | Temp. | Humidity | Pressure | Rain* | Wind** | Luminosity | Snow |
|---|---|---|---|---|---|---|---|
| 1778036445 | 23.89° C | 100% | 1019 hPa | 0 mm | 1.79 m/s, 125° | - | - |
| 1778036148 | 23.89° C | 100% | 1019 hPa | 0 mm | 1.79 m/s, 59° | - | - |
| 1778036145 | 23.89° C | 100% | 1019 hPa | 0 mm | 1.79 m/s, 129° | - | - |
| 1778035894 | 23.89° C | 100% | 1018.9 hPa | 0 mm | 0.89 m/s, 120° | - | - |
| 1778035845 | 23.89° C | 100% | 1019 hPa | 0 mm | 1.79 m/s, 59° | - | - |
| 1778035545 | 23.89° C | 100% | 1018.9 hPa | 0 mm | 0.89 m/s, 120° | - | - |
| 1778035531 | 23.89° C | 100% | 1018.9 hPa | 0 mm | 1.34 m/s, 120° | - | - |
| 1778035245 | 23.89° C | 100% | 1018.9 hPa | 0 mm | 1.34 m/s, 120° | - | - |
| 1778035231 | 23.89° C | 100% | 1018.8 hPa | 0 mm | 0.45 m/s, 46° | - | - |
| 1778034945 | 23.89° C | 100% | 1018.8 hPa | 0 mm | 0.45 m/s, 46° | - | - |
| 1778034645 | 23.89° C | 100% | 1018.8 hPa | 0 mm | 0.89 m/s, 82° | - | - |
| 1778034391 | 23.89° C | 100% | 1018.7 hPa | 0 mm | 0.89 m/s, 109° | - | - |
| 1778034345 | 23.89° C | 100% | 1018.7 hPa | 0 mm | 1.79 m/s, 137° | - | - |
| 1778034045 | 23.89° C | 100% | 1018.7 hPa | 0 mm | 0.89 m/s, 109° | - | - |
| 1778033860 | 23.33° C | 100% | 1018.6 hPa | 0 mm | 2.68 m/s, 106° | - | - |
| 1778033745 | 23.33° C | 100% | 1018.6 hPa | 0 mm | 2.68 m/s, 106° | - | - |
| 1778033445 | 23.33° C | 100% | 1018.6 hPa | 0 mm | 0 m/s | - | - |
| 1778033437 | 23.33° C | 100% | 1018.7 hPa | 0 mm | 1.34 m/s, 97° | - | - |
| 1778033189 | 23.33° C | 100% | 1018.7 hPa | 0 mm | 1.34 m/s, 97° | - | - |
| 1778033145 | 23.33° C | 100% | 1018.7 hPa | 0 mm | 1.34 m/s, 97° | - | - |
| 1778032845 | 22.78° C | 100% | 1018.6 hPa | 0 mm | 1.79 m/s, 130° | - | - |
| 1778032773 | 23.33° C | 100% | 1018.5 hPa | 0 mm | 0 m/s | - | - |
| 1778032545 | 23.33° C | 100% | 1018.5 hPa | 0 mm | 0 m/s | - | - |
| 1778032503 | 22.78° C | 100% | 1018.5 hPa | 0 mm | 0.45 m/s, 26° | - | - |
| 1778032245 | 22.78° C | 100% | 1018.5 hPa | 0 mm | 0.45 m/s, 26° | - | - |
* Rain latest hour (hover to see other rain measurements)
** Current wind speed in m/s (hover to see current wind gust speed)